Regional Weather Roundup
Issued by NWS Charleston, WV

Home | Current Version | Previous Version | Graphics & Text | Print | Product List | Glossary On
Versions: 1 2 3 4 5 6 7 8 9 10 11 12 13 14 15 16 17 18 19 20 21 22 23 24 25 26 27 28 29 30 31 32 33 34 35 36 37 38 39 40 41 42 43 44 45 46 47 48 49 50
000
ASUS41 KRLX 141510
RWRRLX
West Virginia Regional Weather Roundup
National Weather Service Charleston WV
1000 AM EST THU DEC 14 2017

Note: "fair" indicates few or no clouds below 12,000 feet with no
significant weather and/or obstructions to visibility.

WVZ003-141600-
Northern Panhandle of West Virginia

CITY           SKY/WX    TMP DP  RH WIND       PRES   REMARKS
WHEELING       LGT SNOW  25  22  88 NW8       29.90R VSB 1
$$

WVZ009-141600-
Northwest West Virginia

CITY           SKY/WX    TMP DP  RH WIND       PRES   REMARKS
PARKERSBURG    CLOUDY    29  19  66 W10       29.99R
$$

WVZ006-141600-
Western West Virginia

CITY           SKY/WX    TMP DP  RH WIND       PRES   REMARKS
HUNTINGTON     CLOUDY    33  19  56 NW7       29.95R
$$

WVZ015-141600-
West Central West Virginia

CITY           SKY/WX    TMP DP  RH WIND       PRES   REMARKS
CHARLESTON     CLOUDY    34  20  56 VRB3      29.93R
$$

WVZ022-031-141600-
North Central West Virginia

CITY           SKY/WX    TMP DP  RH WIND       PRES   REMARKS
CLARKSBURG     LGT SNOW  29  23  78 NW6       29.90R
MORGANTOWN     LGT SNOW  28  21  75 W5        29.90R
$$

WVZ025-035-042-045-141600-
Southern West Virginia

CITY           SKY/WX    TMP DP  RH WIND       PRES   REMARKS
BECKLEY        CLOUDY    29  19  66 N14G22    29.82R
LOGAN          CLOUDY    32  21  64 N9        29.90R
BLUEFIELD      CLOUDY    31  21  66 NW10G24   29.80R
LEWISBURG      CLOUDY    31  20  62 N12       29.83R
$$

WVZ047-141600-
Northern Mountains of West Virginia

CITY           SKY/WX    TMP DP  RH WIND       PRES   REMARKS
ELKINS         LGT SNOW  27  20  75 NW8       29.84R
$$

WVZ052-141600-
Eastern Panhandle of West Virginia

CITY           SKY/WX    TMP DP  RH WIND       PRES   REMARKS
MARTINSBURG    CLOUDY    33  18  53 NW16G23   29.81R
PETERSBURG     CLOUDY    36  18  48 N3        29.81R
$$



USA.gov is the U.S. government's official web portal to all federal, state and local government web resources and services.